Location: Melara
(45.0500°N, 11.1833°E)
Time: 18:56:39
(UTC+00:00)

M-CUBED/EXP-1 PRIME - Visible Passes

Search period start: 26 May 2024 00:00
Search period end: 05 June 2024 00:00
Orbit: 314 x 362 km, 101.7° (Epoch: 26 May)

Date Brightness Start Highest point End Pass type
(mag) Time Alt. Az. Time Alt. Az. Time Alt. Az.
26 May ? 02:29:11 10° E 02:30:09 12° ENE 02:31:07 10° NE visible
27 May ? 02:49:17 10° ESE 02:51:15 19° ENE 02:53:14 10° NNE visible
31 May ? 02:41:06 10° ENE 02:41:51 11° ENE 02:42:36 10° NE visible
